Weather History for Rochester, NY

Change the Weather History Date:

Sunday, October 2, 2011

  Actual Average Record
Temperature  
Mean Temperature 49 °F 55 °F  
Max Temperature 54 °F 65 °F 87 °F (1927)
Min Temperature 44 °F 46 °F 32 °F (1975)
Degree Days  
Heating Degree Days 16 10  
Month to date heating degree days 32 20  
Since 1 July heating degree days 127 201  
Cooling Degree Days 0 0  
Month to date cooling degree days 0 0  
Year to date cooling degree days 694 534  
Growing Degree Days 0 (Base 50)    
Moisture  
Dew Point 44 °F    
Average Humidity 86    
Maximum Humidity 96    
Minimum Humidity 76    
Precipitation  
Precipitation 0.38 in 0.09 in 2.00 in (1929)
Month to date precipitation 0.81 0.18  
Year to date precipitation 31.13 26.16  
Snow  
Snow 0.00 in 0.00 in T in (2003)
Month to date snowfall 0.0 0.0  
Since 1 July snowfall 0.0 0.0  
Since 1 September snowfall 0.0 0.0  
Snow Depth 0.00 in    
Sea Level Pressure  
Sea Level Pressure 29.92 in    
Wind  
Wind Speed 12 mph (NNE)    
Max Wind Speed 21 mph    
Max Gust Speed 26 mph    
Visibility 7 miles    
Events Rain    
T = Trace of Precipitation, MM = Missing Value Source: NWS Daily Summary

Daily Weather History Graph

Daily Weather History Graph

Search for Another Location

Airport:

Trip Planner

Search our weather history database for the weather conditions in past years. The results will help you decide how hot, cold, wet, or windy it might be!

Date:

Astronomy

Oct. 02, 2011 Rise Set
Actual Time 7:08 AM EDT 6:50 PM EDT
Civil Twilight 6:40 AM EDT 7:18 PM EDT
Nautical Twilight 6:07 AM EDT 7:51 PM EDT
Astronomical Twilight 5:34 AM EDT 8:25 PM EDT
Moon 1:22 PM EDT 10:37 PM EDT
Length of Visible Light 12h 38m
Length of Day
11h 41m
Waxing Crescent, 34% of the Moon is Illuminated
Oct 2
Waxing Crescent
Oct 3
First Quarter
Oct 11
Full
Oct 19
Last Quarter
Oct 26
New

Hourly Weather History & Observations

Time (EDT) Temp. Windchill Dew Point Humidity Pressure Visibility Wind Dir Wind Speed Gust Speed Precip Events Conditions
12:03 AM 44.6 °F 37.2 °F 39.2 °F 81% 29.99 in 8.0 mi NNE 17.3 mph 26.5 mph 0.00 in Rain Light Rain
12:54 AM 44.1 °F 36.5 °F 39.0 °F 82% 29.99 in 10.0 mi North 17.3 mph - 0.02 in Rain Light Rain
1:54 AM 45.0 °F 37.9 °F 39.0 °F 80% 29.96 in 10.0 mi NNE 16.1 mph 21.9 mph 0.00 in   Overcast
2:11 AM 44.6 °F 36.9 °F 37.4 °F 76% 29.95 in 10.0 mi NNE 18.4 mph 23.0 mph N/A   Overcast
2:21 AM 44.6 °F 37.4 °F 37.4 °F 76% 29.95 in 10.0 mi NNE 16.1 mph 23.0 mph N/A   Overcast
2:54 AM 45.0 °F 37.4 °F 37.9 °F 76% 29.95 in 10.0 mi NNE 18.4 mph - 0.00 in   Overcast
3:03 AM 44.6 °F 36.9 °F 37.4 °F 76% 29.93 in 10.0 mi NNE 18.4 mph 24.2 mph 0.00 in Rain Light Rain
3:54 AM 45.0 °F 38.5 °F 39.0 °F 80% 29.93 in 10.0 mi NNE 13.8 mph 25.3 mph 0.00 in Rain Light Rain
4:54 AM 45.0 °F 37.4 °F 39.0 °F 80% 29.93 in 10.0 mi NNE 18.4 mph 26.5 mph 0.00 in Rain Light Rain
5:54 AM 44.1 °F 37.7 °F 39.9 °F 85% 29.93 in 10.0 mi North 12.7 mph - 0.00 in Rain Light Rain
6:54 AM 45.0 °F 38.5 °F 39.9 °F 82% 29.92 in 10.0 mi North 13.8 mph - 0.01 in   Overcast
7:50 AM 44.6 °F 37.4 °F 41.0 °F 87% 29.91 in 2.5 mi North 16.1 mph - 0.00 in Rain Light Rain
7:54 AM 44.1 °F 36.8 °F 41.0 °F 89% 29.91 in 3.0 mi North 16.1 mph 24.2 mph 0.00 in Rain Light Rain
8:01 AM 44.6 °F 37.4 °F 41.0 °F 87% 29.90 in 4.0 mi North 16.1 mph 21.9 mph 0.00 in Rain Light Rain
8:12 AM 44.6 °F 37.8 °F 41.0 °F 87% 29.91 in 2.0 mi North 15.0 mph - 0.00 in Rain Light Rain
8:20 AM 44.6 °F 36.9 °F 42.8 °F 93% 29.90 in 2.0 mi North 18.4 mph 25.3 mph 0.00 in Rain Light Rain
8:54 AM 44.1 °F 37.7 °F 42.1 °F 93% 29.91 in 2.0 mi NNE 12.7 mph 21.9 mph 0.01 in Rain Light Rain
9:04 AM 44.6 °F 38.1 °F 41.0 °F 87% 29.91 in 1.5 mi NNE 13.8 mph 23.0 mph 0.00 in Rain Light Rain
9:54 AM 44.1 °F 37.4 °F 42.1 °F 93% 29.91 in 1.5 mi North 13.8 mph 21.9 mph 0.03 in Rain Light Rain
10:01 AM 44.6 °F 38.4 °F 42.8 °F 93% 29.90 in 1.5 mi North 12.7 mph 21.9 mph 0.00 in Rain Light Rain
10:54 AM 46.0 °F 40.2 °F 44.1 °F 93% 29.91 in 1.5 mi NNE 12.7 mph 19.6 mph 0.07 in Rain Rain
11:54 AM 48.0 °F - 46.0 °F 93% 29.88 in 10.0 mi NNE 12.7 mph - 0.10 in Rain Light Rain
12:54 PM 48.9 °F - 46.9 °F 93% 29.88 in 10.0 mi East 6.9 mph - 0.02 in   Overcast
1:54 PM 52.0 °F - 46.9 °F 83% 29.88 in 10.0 mi East 12.7 mph - N/A   Overcast
2:29 PM 51.8 °F - 46.4 °F 82% 29.88 in 10.0 mi ENE 8.1 mph - N/A   Mostly Cloudy
2:54 PM 53.1 °F - 46.0 °F 77% 29.89 in 10.0 mi East 6.9 mph - N/A   Mostly Cloudy
3:29 PM 53.6 °F - 46.4 °F 77% 29.88 in 10.0 mi East 9.2 mph - N/A   Mostly Cloudy
3:54 PM 54.0 °F - 46.9 °F 77% 29.89 in 10.0 mi ENE 9.2 mph - N/A   Mostly Cloudy
4:54 PM 53.1 °F - 46.0 °F 77% 29.91 in 10.0 mi ENE 8.1 mph - N/A   Mostly Cloudy
5:12 PM 53.6 °F - 46.4 °F 77% 29.90 in 10.0 mi ENE 9.2 mph - N/A   Mostly Cloudy
5:54 PM 53.1 °F - 46.9 °F 80% 29.92 in 10.0 mi East 4.6 mph - N/A   Mostly Cloudy
6:16 PM 53.6 °F - 46.4 °F 77% 29.92 in 10.0 mi Calm Calm - N/A   Overcast
6:54 PM 54.0 °F - 50.0 °F 86% 29.93 in 10.0 mi NNE 17.3 mph - N/A   Overcast
7:35 PM 53.6 °F - 48.2 °F 82% 29.93 in 10.0 mi North 13.8 mph - N/A   Overcast
7:54 PM 52.0 °F - 50.0 °F 93% 29.94 in 4.0 mi NNE 19.6 mph - 0.00 in Rain Light Rain
8:54 PM 51.1 °F - 48.9 °F 92% 29.95 in 3.0 mi North 12.7 mph - 0.00 in Rain Light Rain
9:32 PM 51.8 °F - 50.0 °F 94% 29.94 in 2.0 mi North 9.2 mph - 0.01 in Rain Light Rain
9:54 PM 51.1 °F - 50.0 °F 96% 29.95 in 2.0 mi North 9.2 mph - 0.02 in Rain Light Rain
10:17 PM 51.8 °F - 50.0 °F 94% 29.94 in 4.0 mi North 8.1 mph - 0.01 in   Overcast
10:54 PM 51.1 °F - 50.0 °F 96% 29.95 in 3.0 mi North 8.1 mph - 0.02 in Rain Light Rain
11:54 PM 52.0 °F - 50.0 °F 93% 29.95 in 2.0 mi North 6.9 mph - 0.03 in Rain Light Rain